Flight Track Log - Related Links

Times and Time Zones

All times are in EDT time to prevent confusion due to time zone crossing. See the DAL3926 flight status page for this flight to view local times or setup timezone preferences in your user account.


Time Position Orientation Groundspeed Altitude Reporting Facility
EDT Latitude Longitude Course Direction KTS MPH feet Rate Location/Type
Sun 12:31:19 PM 44.8761 -93.1786 45° Northeast 156 180 2,200  Level FAA TRACON SMA TRACON (SMA)
Sun 12:31:39 PM 44.8714 -93.1600 110° East 162 186 2,900 2,195 Climbing FAA TRACON SMA TRACON (SMA)
Sun 12:32:00 PM 44.8694 -93.1372 97° East 181 208 3,700 2,049 Climbing FAA TRACON SMA TRACON (SMA)
Sun 12:32:20 PM 44.8675 -93.1058 95° East 207 238 4,300 1,200 Climbing FAA TRACON SMA TRACON (SMA)
Sun 12:32:40 PM 44.8647 -93.0744 97° East 245 282 4,500 1,385 Climbing FAA TRACON SMA TRACON (SMA)
Sun 12:32:59 PM 44.8633 -93.0400 93° East 280 322 5,200 3,077 Climbing FAA TRACON SMA TRACON (SMA)
Sun 12:33:19 PM 44.8778 -93.0011 62° Northeast 299 344 6,500 2,550 Climbing FAA TRACON SMA TRACON (SMA)
Sun 12:33:39 PM 44.8961 -92.9764 44° Northeast 299 344 6,900 600 Climbing FAA TRACON SMA TRACON (SMA)
Sun 12:33:59 PM 44.9189 -92.9594 28° Northeast 302 348 6,900 150 Level FAA TRACON SMA TRACON (SMA)
Sun 12:34:00 PM 45.1800 -93.3013 45° Northeast  Level FlightAware Approximate
Sun 12:34:19 PM 44.9492 -92.9469 16° North 295 339 7,000  Level FAA TRACON SMA TRACON (SMA)
Sun 12:34:39 PM 44.9731 -92.9378 15° North 291 335 7,000 1,317 Level FAA TRACON SMA TRACON (SMA)
Sun 12:35:00 PM 45.2427 -93.2128 45° Northeast  Level FlightAware Approximate
Sun 12:35:00 PM 44.9981 -92.9283 15° North 296 341 7,900  Level FAA TRACON SMA TRACON (SMA)
Sun 12:35:20 PM 45.0294 -92.9158 16° North 301 346 9,100 3,150 Climbing FAA TRACON SMA TRACON (SMA)
Sun 12:35:40 PM 45.0542 -92.9056 16° North 304 350 10,000 2,462 Climbing FAA TRACON SMA TRACON (SMA)
Sun 12:35:59 PM 45.0800 -92.8958 15° North 308 354 10,700 1,846 Climbing FAA TRACON SMA TRACON (SMA)
Sun 12:36:00 PM 45.3051 -93.1238 45° Northeast  Level FlightAware Approximate
Sun 12:36:19 PM 45.1147 -92.8828 15° North 325 374 11,200  Level FAA TRACON SMA TRACON (SMA)
Sun 12:36:39 PM 45.1439 -92.8717 15° North 344 396 11,600 1,500 Climbing FAA TRACON SMA TRACON (SMA)
Sun 12:36:59 PM 45.1742 -92.8597 16° North 360 414 12,200 1,950 Climbing FAA TRACON SMA TRACON (SMA)
Sun 12:37:19 PM 45.2131 -92.8453 15° North 373 429 12,900 2,100 Climbing FAA TRACON SMA TRACON (SMA)
Sun 12:37:39 PM 45.2444 -92.8328 16° North 377 434 13,600 1,950 Climbing FAA TRACON SMA TRACON (SMA)
Sun 12:37:59 PM 45.2758 -92.8203 16° North 381 438 14,200 1,950 Climbing FAA TRACON SMA TRACON (SMA)
Sun 12:38:19 PM 45.3158 -92.8058 14° North 384 442 14,900 1,200 Climbing FAA TRACON SMA TRACON (SMA)
Sun 12:38:39 PM 45.3478 -92.7931 16° North 386 444 15,000 150 Climbing FAA TRACON SMA TRACON (SMA)
Sun 12:38:59 PM 45.3800 -92.7819 14° North 387 445 15,000  Level FAA TRACON SMA TRACON (SMA)
Sun 12:39:19 PM 45.4197 -92.7661 16° North 383 441 15,000  Level FAA TRACON SMA TRACON (SMA)
Sun 12:39:39 PM 45.4514 -92.7550 14° North 383 441 15,000  Level FAA TRACON SMA TRACON (SMA)
Sun 12:39:59 PM 45.4822 -92.7428 16° North 378 435 15,000  Level FAA TRACON SMA TRACON (SMA)
Sun 12:40:19 PM 45.5217 -92.7283 14° North 376 433 15,000  Level FAA TRACON SMA TRACON (SMA)
Sun 12:40:40 PM 45.5528 -92.7164 15° North 375 432 15,000  Level FAA TRACON SMA TRACON (SMA)
Sun 12:41:00 PM 45.5833 -92.7042 16° North 373 429 15,000  Level FAA TRACON SMA TRACON (SMA)
Sun 12:41:20 PM 45.6219 -92.6889 15° North 374 430 15,000  Level FAA TRACON SMA TRACON (SMA)
Sun 12:41:40 PM 45.6525 -92.6767 16° North 371 427 15,000  Level FAA TRACON SMA TRACON (SMA)
Sun 12:42:00 PM 45.6833 -92.6650 15° North 371 427 15,000  Level FAA TRACON SMA TRACON (SMA)
Sun 12:42:19 PM 45.7142 -92.6539 14° North 370 426 15,000  Level FAA TRACON SMA TRACON (SMA)
Sun 12:42:39 PM 45.7522 -92.6389 15° North 369 425 15,000  Level FAA TRACON SMA TRACON (SMA)
Sun 12:42:59 PM 45.7831 -92.6269 15° North 369 425 15,000  Level FAA TRACON SMA TRACON (SMA)
Sun 12:44:02 PM 45.8722 -92.5864 18° North 369 425 15,000 -290 Level Minneapolis Center
Sun 12:45:03 PM 45.9728 -92.5475 15° North 374 430 14,400 -585 Descending Minneapolis Center
Sun 12:46:05 PM 46.0958 -92.4975 16° North 384 442 13,800 -629 Descending Minneapolis Center
Sun 12:47:07 PM 46.1975 -92.4747 North 372 428 13,100 -1,415 Descending Minneapolis Center
Sun 12:48:08 PM 46.2856 -92.4689 North 351 404 10,900 -1,756 Descending Minneapolis Center
Sun 12:49:10 PM 46.3714 -92.4819 354° North 320 368 9,500 -1,366 Descending Minneapolis Center
Sun 12:50:11 PM 46.4511 -92.4953 353° North 296 341 8,100 -1,366 Descending Minneapolis Center
Sun 12:51:13 PM 46.5481 -92.5139 352° North 294 338 6,700 -1,355 Descending Minneapolis Center
Sun 12:52:15 PM 46.6264 -92.5333 350° North 291 335 5,300 -1,366 Descending Minneapolis Center
Sun 12:53:16 PM 46.7056 -92.5331 360° North 286 329 3,900 -1,024 Descending Minneapolis Center
Sun 12:54:18 PM 46.7839 -92.5322 360° North 284 327 3,200 -339 Descending Minneapolis Center
Sun 12:55:20 PM 46.8414 -92.5153 11° North 255 293 3,200  Level Minneapolis Center
Sun 12:56:21 PM 46.8531 -92.4439 77° East 211 243 3,200  Level Minneapolis Center
Sun 12:57:23 PM 46.8472 -92.3767 97° East 187 215 3,200 -194 Level Minneapolis Center
Sun 12:58:25 PM 46.8442 -92.3111 94° East 159 183 2,800 -387 Descending Minneapolis Center

Login

Don't have an account? Register now (free) for customized features, flight alerts, and more!